Probability
0 0 0 1 2 2 2 1 1 2 2 1 0 0 0 0 0 0 0 0 0 0 0 0 0 0 0 0 0 0 0 0 0 0 0 0 0 0 0 0 0 0 0
0 0 0 0 1 1 1 0 0 1 1 0 0 0 0 0 0 0 0 0 0 0 0 0 0 0 0 0 0 0 0 0 0 0 0 0 0 0 0 0 0 0 0
0 0 0 0 0 0 0 0 0 0 0 0 0 0 0 0 0 0 0 0 0 0 0 0 0 0 0 0 0 0 0 0 0 0 0 0 0 0 0 0 0 0 0
0 0 0 0 0 0 0 0 0 0 0 0 0 0 0 0 0 0 0 0 0 0 0 0 0 0 0 0 0 0 0 0 0 0 0 0 0 0 0 0 0 0 0
0 0 0 0 0 0 0 0 0 0 0 0 0 0 0 0 0 0 0 0 0 0 0 0 0 0 0 0 0 0 0 0 0 0 0 0 0 0 0 0 0 0 0
0 0 0 0 0 0 0 0 0 0 0 0 0 0 0 0 0 0 0 0 0 0 0 0 0 0 0 0 0 0 0 0 0 0 0 0 0 0 0 0 0 0 0
0 0 0 0 0 0 0 0 0 0 0 0 0 0 0 0 0 0 0 0 0 0 0 0 0 0 0 0 0 0 0 0 0 0 0 0 0 0 0 0 0 0 0
0 0 0 0 0 0 0 0 0 0 0 0 0 0 0 0 0 0 0 0 0 0 0 0 0 0 0 0 0 0 0 0 0 0 0 0 0 0 0 0 0 0 0
0 0 0 0 0 0 0 0 0 0 0 0 0 0 0 0 0 0 0 0 0 0 0 0 0 0 0 0 0 0 0 0 0 0 0 0 0 0 0 0 0 1 1
0 0 0 0 0 0 0 0 0 0 0 0 0 0 0 0 0 0 0 0 0 0 0 0 0 0 0 0 0 0 0 0 0 0 0 0 0 0 0 0 0 1 2
0 0 0 0 0 0 0 0 0 0 0 0 0 0 0 0 0 0 0 0 0 0 0 0 0 0 0 0 0 0 0 0 0 0 0 0 0 0 0 0 0 1 2
0 0 0 0 0 0 0 0 0 0 0 0 0 0 0 0 0 0 0 0 0 0 0 0 0 0 0 0 0 0 0 0 0 0 0 0 0 0 0 0 0 1 1
0 0 0 0 0 0 0 0 0 0 0 0 0 0 0 0 0 0 0 0 0 0 0 0 0 0 0 0 0 0 0 0 0 0 1 0 0 0 0 1 1 2 2
0 0 0 0 0 0 0 0 0 0 0 0 0 0 0 0 0 0 0 0 0 0 0 0 0 0 0 0 0 0 0 0 0 0 0 0 0 0 1 1 2 2 3
0 0 0 0 0 0 0 0 0 0 0 0 0 0 0 0 0 0 0 0 0 0 0 0 0 0 0 0 0 0 0 0 0 0 0 0 0 0 1 2 3 2 2
0 0 0 0 0 0 0 0 0 0 0 0 0 0 0 0 0 0 0 0 0 0 0 0 0 0 0 0 0 0 0 0 0 0 0 0 0 0 1 2 3 2 2
0 0 0 0 0 0 0 0 0 0 0 0 0 0 0 0 0 0 0 0 0 0 0 0 0 0 0 0 0 0 0 0 0 0 0 0 0 0 0 1 2 3 3
0 0 0 0 0 0 0 0 0 0 0 0 0 0 0 0 0 0 0 0 0 0 0 0 0 0 0 0 0 0 0 0 0 0 0 0 0 0 0 0 1 2 2
0 0 0 0 0 0 0 0 0 0 0 0 0 0 0 0 0 0 0 0 0 0 0 0 0 0 0 0 0 0 0 0 0 0 0 0 0 0 0 0 0 1 1
0 0 0 0 0 0 0 0 0 0 0 0 0 0 0 0 0 0 0 0 0 0 0 0 0 0 0 0 0 0 0 0 0 0 0 0 0 0 0 0 0 0 0
1 1 1 0 0 0 0 0 0 0 0 0 0 0 0 0 0 0 0 0 0 0 0 0 0 0 0 0 0 0 0 0 0 0 0 0 0 0 0 0 0 0 0
1 2 2 1 1 0 0 0 0 0 0 0 0 0 0 0 0 0 0 0 0 0 0 0 0 0 0 0 0 0 0 0 0 0 0 0 0 0 0 0 0 0 0
0 1 2 2 1 0 0 0 0 0 0 0 0 0 0 0 0 0 0 0 0 0 0 0 0 0 0 0 0 0 0 0 0 0 0 0 0 0 0 0 0 0 0
0 1 2 3 1 0 0 0 0 0 0 0 0 0 0 0 0 0 0 0 0 0 0 0 0 0 0 0 0 0 0 0 0 0 0 0 0 0 0 0 0 0 0
0 1 3 3 2 1 0 0 0 0 0 0 0 0 0 0 0 0 0 0 0 0 0 0 0 0 0 0 0 0 0 0 0 0 0 0 0 0 0 0 1 1 1
1 2 3 3 3 2 1 0 0 0 0 0 0 0 0 0 0 0 0 0 0 0 0 0 0 0 0 0 0 0 0 0 0 0 0 0 0 0 0 1 2 3 4
Wind_Speed
4 6 8 8 10 10 10 11 11 11 11 10 10 10 9 9 9 9 8 8 8 8 7 7 7 7 7 7 7 6 6 6 6 5 4 4 3 4 4 4 3 2 6
6 7 9 10 10 10 11 11 11 11 11 10 10 10 9 9 9 9 8 8 8 7 7 7 7 7 7 7 7 7 6 6 5 5 3 1 3 3 4 4 6 5 5
7 8 10 10 11 11 11 11 11 11 11 10 10 10 9 9 9 8 8 8 8 7 7 7 7 6 7 7 7 7 6 6 5 4 4 1 4 4 4 4 4 5 5
8 9 10 11 11 12 12 12 12 12 11 11 10 10 9 9 8 8 8 8 8 7 7 7 7 7 6 6 6 6 6 5 4 5 3 3 3 6 4 4 4 4 4
9 10 11 11 12 12 12 12 11 11 11 11 10 9 9 8 8 8 7 7 7 7 7 7 7 6 6 6 6 6 6 5 4 5 3 3 3 5 4 4 3 3 4
10 10 11 10 12 12 12 11 11 11 11 10 9 8 8 7 7 7 6 6 7 7 7 6 6 6 6 6 6 6 6 5 6 2 2 2 3 5 4 4 3 3 4
10 10 11 11 11 11 11 11 11 11 10 9 9 8 8 7 7 6 6 6 6 7 6 6 6 6 6 6 6 6 5 6 4 2 2 2 4 5 4 4 4 4 4
9 9 10 10 10 10 10 10 10 10 9 9 8 8 8 8 7 7 7 7 6 6 6 6 6 6 6 6 6 5 6 7 2 2 1 2 4 4 4 3 4 4 4
8 8 8 9 9 10 9 10 9 9 9 8 8 7 7 7 7 7 7 7 6 7 7 7 7 6 6 6 5 5 4 5 5 2 1 2 4 3 3 3 4 4 4
7 7 7 7 7 7 8 9 8 8 8 7 7 7 5 4 5 5 5 7 7 7 7 7 7 6 6 5 5 5 4 6 3 2 1 3 3 3 3 3 4 4 5
7 6 6 6 6 5 6 6 6 6 6 4 5 5 2 4 5 4 9 7 7 7 7 7 6 5 4 1 3 4 5 2 2 2 2 6 4 3 2 3 4 4 5
7 6 5 5 5 5 4 4 3 4 4 5 5 5 4 4 4 4 5 5 5 4 2 4 3 3 4 2 1 3 2 3 2 1 4 5 4 3 2 3 3 4 4
7 6 5 5 5 4 4 3 3 3 3 4 5 5 4 4 3 3 3 2 3 3 3 2 3 3 3 3 3 3 3 3 2 2 4 5 5 3 3 2 2 3 4
7 6 5 5 5 5 4 4 3 3 3 4 4 6 4 3 4 4 3 4 3 3 3 4 3 4 4 4 4 4 3 3 2 2 3 5 5 4 3 2 2 2 3
7 6 5 5 5 5 5 3 3 4 4 4 4 4 5 4 4 4 3 3 4 4 3 3 4 4 4 4 4 4 4 3 3 2 1 3 3 4 3 2 2 2 2
6 6 5 5 5 4 4 3 4 4 3 4 4 5 5 4 4 4 4 4 4 5 4 4 4 4 3 3 4 4 4 4 3 2 2 1 2 2 3 3 2 2 2
6 6 6 5 4 4 4 4 3 3 4 4 4 5 5 5 5 5 5 5 5 5 5 4 5 4 3 3 3 4 3 4 4 3 2 2 0 2 1 2 3 2 2
6 6 6 4 4 4 4 3 3 4 4 4 4 4 5 6 6 5 4 5 5 5 4 4 4 4 3 4 3 3 2 2 3 3 2 2 2 2 2 2 2 2 2
5 6 5 4 4 4 3 3 3 3 3 3 3 4 5 6 6 5 4 5 5 4 5 5 5 5 5 4 3 2 2 2 3 2 3 3 2 2 2 2 1 0 2
5 5 5 5 3 4 3 2 3 3 3 3 3 4 5 5 6 5 4 5 5 5 5 5 5 5 4 4 3 2 2 1 2 3 3 2 2 3 3 3 1 2 2
5 5 5 4 4 2 2 1 2 2 2 3 3 4 4 5 5 5 4 5 5 5 5 6 5 5 5 5 3 2 0 1 2 2 2 3 3 3 3 2 2 2 1
5 4 4 3 3 2 1 1 1 1 2 2 2 3 4 5 5 4 5 4 4 3 5 6 5 5 4 5 5 4 2 1 2 2 2 3 4 3 3 3 3 2 2
5 4 3 3 4 3 2 1 1 1 1 1 2 2 4 4 5 5 5 5 4 4 4 5 5 6 5 5 5 5 4 4 3 1 3 3 4 3 3 3 3 3 2
5 5 4 4 4 3 3 2 1 1 2 3 2 2 3 4 4 4 5 5 5 4 4 5 5 4 5 4 4 3 4 4 4 3 2 3 4 4 4 3 3 2 2
6 5 4 5 4 3 3 2 1 2 2 2 2 3 3 3 4 4 5 4 5 4 5 5 5 5 4 5 4 4 4 3 4 4 4 5 3 3 3 3 3 2 2
6 5 5 5 4 3 3 2 2 2 2 2 3 3 3 3 3 5 5 4 5 5 5 5 4 4 4 5 4 4 4 4 4 4 5 5 5 4 4 3 2 2 2
Wind_Direction
77 78 88 96 99 100 98 97 97 96 95 93 91 91 88 85 81 76 71 68 66 61 57 54 53 51 50 47 45 41 39 41 38 36 36 43 43 41 33 23 345 58 54
88 89 92 92 97 98 95 93 94 93 93 91 90 88 84 80 76 72 68 64 60 57 53 47 45 45 43 39 36 32 32 32 30 28 9 84 89 46 31 24 8 26 32
92 94 97 89 91 91 90 90 90 88 88 86 85 84 81 76 73 67 63 59 55 52 49 45 40 38 37 32 26 23 22 23 23 9 292 325 91 73 31 27 27 24 20
92 89 86 87 87 87 86 85 85 83 80 78 76 74 73 71 68 64 58 54 49 46 43 38 32 31 31 27 20 18 17 14 5 311 296 24 37 69 30 21 20 18 16
91 88 87 85 85 84 84 84 83 82 79 75 71 68 65 64 61 58 53 48 43 40 37 32 27 25 22 18 14 12 11 6 329 290 5 13 31 52 23 14 12 12 12
93 91 89 85 86 84 83 83 82 81 78 75 71 65 60 58 55 50 44 42 35 32 29 25 21 19 15 12 10 6 2 346 291 348 357 1 34 46 17 10 10 10 10
98 95 93 83 84 83 81 79 79 78 77 74 69 62 56 53 49 45 40 38 32 26 23 19 13 10 9 11 8 4 359 330 309 341 344 9 37 29 7 9 13 9 5
99 100 101 94 83 78 75 73 73 72 70 68 65 61 57 51 46 45 40 37 32 26 20 16 12 9 9 7 3 2 358 324 314 331 351 24 41 11 2 10 11 7 0
101 100 100 105 104 96 80 69 68 68 66 65 63 60 57 55 50 47 44 34 32 28 24 19 16 13 11 7 3 0 353 324 307 318 324 42 48 10 5 6 7 3 355
107 101 98 93 88 91 93 77 69 68 64 65 62 58 59 78 71 48 50 42 30 28 25 20 15 14 11 10 8 357 321 277 323 321 332 58 35 357 6 4 3 360 354
107 103 103 98 89 83 79 82 85 82 67 78 84 71 33 40 47 57 45 36 31 29 26 22 16 9 341 37 22 332 283 317 5 340 19 39 10 355 3 2 3 3 356
111 107 104 101 93 89 81 82 65 67 67 57 51 49 40 45 37 27 83 50 37 22 31 32 345 291 285 343 79 251 308 333 327 357 54 32 4 355 357 4 4 1 355
109 103 101 100 93 87 87 71 59 60 65 62 48 47 32 35 40 26 21 42 23 350 6 12 311 352 345 359 340 347 357 335 345 359 53 27 1 353 353 356 1 356 352
107 100 95 94 96 90 82 79 74 68 60 57 45 37 32 29 19 24 13 13 6 13 5 351 346 356 342 342 342 346 349 338 344 351 54 31 0 351 346 352 359 358 354
109 103 89 83 81 84 80 77 76 64 50 62 44 33 35 26 22 20 24 14 8 5 359 350 346 360 342 344 340 338 340 337 328 334 50 68 13 357 353 354 351 347 348
113 103 100 93 87 91 97 87 71 68 70 49 46 39 32 30 23 14 21 19 12 2 357 344 356 343 335 341 337 339 328 329 328 325 328 110 114 32 6 354 334 329 305
111 109 101 92 87 85 80 71 70 64 57 52 46 36 36 29 21 19 15 18 10 2 357 353 355 339 339 336 335 337 332 330 327 321 332 326 304 134 73 356 339 325 307
119 112 107 102 96 88 82 74 69 63 56 54 47 38 32 30 27 22 15 16 10 4 2 2 354 346 344 339 338 339 332 335 323 331 313 299 318 324 134 89 348 339 336
124 122 116 105 99 97 97 94 73 69 59 53 48 38 25 26 22 26 15 8 9 8 7 2 7 352 352 346 336 333 337 352 350 336 331 332 328 311 313 126 168 346 342
132 124 117 118 111 111 115 102 94 78 66 57 49 40 23 19 18 16 15 15 9 12 10 8 7 2 351 342 335 346 351 10 10 6 352 349 336 329 328 325 270 171 172
142 134 127 132 126 128 117 107 89 82 65 60 48 36 24 18 14 15 6 17 9 16 9 5 0 4 4 351 334 334 94 87 27 24 358 349 2 355 326 316 306 314 198
141 141 139 133 126 118 95 75 69 55 50 50 39 38 22 18 13 4 9 9 16 9 12 10 6 356 7 2 344 330 333 151 58 32 13 356 352 352 342 330 325 311 305
145 144 141 135 130 125 127 124 129 128 150 100 59 39 21 15 16 7 7 3 5 4 13 4 3 1 358 9 10 349 341 360 343 24 13 3 0 346 340 340 327 327 313
148 148 146 139 127 120 130 122 90 47 44 37 18 26 19 23 18 10 4 359 1 3 2 358 8 354 347 355 6 2 351 343 319 333 347 3 354 350 352 340 329 331 328
149 149 145 135 125 117 112 102 92 67 56 50 30 27 12 30 18 13 2 358 358 358 359 356 352 349 348 346 345 343 338 321 307 312 321 335 338 348 354 347 334 340 341
152 152 149 144 129 124 124 117 93 75 56 46 33 23 15 30 21 22 4 359 358 358 356 352 347 349 346 343 333 336 332 327 330 322 313 320 328 336 342 342 339 350 340